Location: Unspecified
(0.0000°N, 0.0000°E)
Time: 12:40:24
(UTC+02:00)

Centaur D-1AR AC-41 - Visible Passes

Search period start: 03 August 2015 00:00
Search period end: 13 August 2015 00:00
Orbit: 627 x 36216 km, 21.8° (Epoch: 02 August)

Date Brightness Start Highest point End Pass type
(mag) Time Alt. Az. Time Alt. Az. Time Alt. Az.
04 Aug 7.0 06:39:42 19° SW 07:12:19 66° SSE 16:49:00 10° ENE visible
05 Aug 6.9 04:15:25 38° SSE 04:16:03 38° SSE 14:10:50 10° ENE visible
06 Aug 5.4 22:58:44 10° W 23:00:57 20° W 23:00:57 20° W visible
07 Aug 5.1 10:36:20 10° WSW 20:31:06 53° N 20:36:15 10° E visible
09 Aug 6.8 05:26:09 37° SSW 05:39:30 54° SSE 15:29:49 10° ENE visible
10 Aug 7.4 03:01:52 24° SE 03:01:52 24° SE 12:46:45 10° ENE visible
11 Aug 3.0 21:36:16 10° WNW 21:46:22 84° SSW 21:47:06 63° SE visible
